Regional Weather Roundup
Issued by NWS State College, PA

Home | Current Version | Previous Version | Text Only | Print | Product List | Glossary Off
Versions: 1 2 3 4 5 6 7 8 9 10 11 12 13 14 15 16 17 18 19 20 21 22 23 24 25 26 27 28 29 30 31 32 33 34 35 36 37 38 39 40 41 42 43 44 45 46 47 48 49 50

000
ASUS41 KCTP 282303
RWRCTP

REGIONAL WEATHER ROUNDUP
NATIONAL WEATHER SERVICE STATE COLLEGE PA
700 PM EDT WED JUN 28 2017

Note: "fair" indicates few or no clouds below 12,000 feet with no
significant weather and/or obstructions to visibility.

* = STATION THAT DOES NOT REPORT PRECIPITATION /E.G. RAIN...SNOW...ETC/
    THUNDER OR FOG.

PAZ002>004-007>009-013>016-020>023-029>032-290000-
WESTERN PENNSYLVANIA

CITY           SKY/WX    TMP DP  RH WIND       PRES   REMARKS
ERIE           MOSUNNY   72  49  44 CALM      30.04F
MEADVILLE      MOSUNNY   70  50  49 SW7       30.08F
FRANKLIN*      MOSUNNY   70  48  46 SW8       30.11F
NEW CASTLE     FAIR      73  53  49 SW5       30.09F
BEAVER COUNTY  SUNNY     72  52  49 S6        30.10F
BUTLER*        CLOUDY    72  50  46 S8        30.10F
PITTSBURGH INT CLOUDY    74  51  44 S10       30.10F
PITTSBURGH     CLOUDY    73  51  46 S8        30.11F
INDIANA*       SUNNY     72  52  49 W9        30.15F
LATROBE        PTSUNNY   72  50  46 SW7       30.13F
WASHINGTON CO* MOSUNNY   72  50  46 SW5       30.13F
$$

PAZ004>006-010>012-017>019-024>028-033>037-041-042-045-046-049>053-290000-
CENTRAL PENNSYLVANIA

CITY           SKY/WX    TMP DP  RH WIND       PRES   REMARKS
BRADFORD       CLOUDY    67  50  54 VRB5      30.12S
DUBOIS         CLOUDY    67  49  52 SW8       30.12S
CLEARFIELD     CLOUDY    71  49  45 SW9       30.13S
JOHNSTOWN      CLOUDY    70  48  45 W6        30.16S
ALTOONA        CLOUDY    73  49  42 SW8       30.14S
STATE COLLEGE  SUNNY     72  52  49 S7        30.12F
WILLIAMSPORT   CLOUDY    76  53  44 S6        30.07S
SELINSGROVE    CLOUDY    76  51  41 SW7       30.10S
FT INDIANTOWN  MOSUNNY   75  50  41 SW7       30.11S
CAPITAL CITY   CLOUDY    78  47  33 S8        30.11S
HARRISBURG     CLOUDY    78  50  37 SW7       30.11S
YORK           CLOUDY    76  49  38 VRB7      30.13S
$$

PAZ038>040-043-044-047-048-054-055-060>062-067>071-290000-
EASTERN PENNSYLVANIA

CITY           SKY/WX    TMP DP  RH WIND       PRES   REMARKS
SCRANTON       MOSUNNY   75  49  39 SW7       30.09S
MOUNT POCONO   MOSUNNY   69  49  48 W8        30.14R
ALLENTOWN      SUNNY     76  51  41 W12       30.10S
QUAKERTOWN*    PTCLDY    75  52  43 SW6       30.13R
READING        MOSUNNY   77  51  40 SW9       30.11R
LANCASTER      SUNNY     76  49  38 SW9       30.12S
COATESVILLE    CLEAR     73  50  43 CALM      30.15S
POTTSTOWN      MOSUNNY   75  49  39 SW7       30.14R
BLUE BELL      SUNNY     75  50  41 W7        30.13S
DOYLESTOWN     SUNNY     76  50  40 W6        30.11S
WILLOW GROVE   NOT AVBL
NORTH PHILA    SUNNY     78  50  37 W6        30.13S
PHILADELPHIA   PTSUNNY   79  47  32 SW13      30.12S
$$




USA.gov is the U.S. government's official web portal to all federal, state and local government web resources and services.